Zurück zum Katalog

ONEWEB-0344

AktivKommunikationPO
NORAD 49210·PAYLOAD·🇬🇧 United Kingdom

Gestartet Sep 14, 2021 von Baikonur Cosmodrome

Loading…

Nächste Überflüge (nächste 24 Stunden)

TLE

AktuellSource: CelesTrak SupGP

Epoche: Sep 14, 2026, 15:36 UTC

1 49210C 21083AA  26257.65018935 -.00000847  00000+0 -23226-2 0  2573
2 49210  87.8919 302.4388 0001568 104.2470 358.3043 13.13473271    15

Verfolge ONEWEB-0344 in Echtzeit mit AllMySat

Download on the App Store